Hourly Data Report for August 13, 2001

SHERBROOKE A
QUEBEC

45°26'00.000" N
71°41'00.000" W
241.40 m
7028124
71610
YSC

Download Data

Hourly Data (August 2001)
Hourly Data Report for August 13, 2001
TIME
LST
Temp Definition
°C
Dew Point Definition
°C
Rel Hum Definition
%
Precip. Amount Definition
mm

Wind Dir Definition
10's deg

Wind Spd Definition
km/h
Visibility Definition
km
Stn Press Definition
kPa
Hmdx Definition


Wind Chill Definition


Weather Definition


00:00 16.3 15.1 93   9 4 15.0 98.69      
01:00 15.2 14.3 94     0 15.0 98.64      
02:00 16.0 15.1 94   8 4 15.0 98.59      
03:00 16.0 15.1 94   15 4 15.0 98.58      
04:00 15.6 14.9 96   12 4 15.0 98.56      
05:00 16.7 15.6 93   17 6 15.0 98.56      
06:00 16.8 15.8 94   13 7 15.0 98.54      
07:00 20.2 17.4 84     0 24.1 98.55 26   Mainly Clear
08:00 22.1 18.3 79   23 11 24.1 98.55 28   Mainly Clear
09:00 23.6 18.2 72   26 11 24.1 98.53 30   Mainly Clear
10:00 24.9 18.1 66   23 9 24.1 98.50 31   Mainly Clear
11:00 26.3 18.3 61   19 13 24.1 98.45 33   Mostly Cloudy
12:00 26.8 16.7 54   26 17 24.1 98.40 32   Mostly Cloudy
13:00 25.5 15.1 53   27 19 24.1 98.36 30   Mostly Cloudy
14:00 26.6 14.4 47   28 26 24.1 98.34 30   Mostly Cloudy
15:00 25.8 13.0 45   26 22 24.1 98.39 29   Mostly Cloudy
16:00 25.8 12.6 44   25 19 24.1 98.37 28   Mostly Cloudy
17:00 23.5 14.3 56   29 17 15.0 98.40 27    
18:00 21.3 14.6 66   33 11 15.0 98.49 25    
19:00 18.4 14.5 78   30 9 15.0 98.57      
20:00 15.6 13.9 90     0 15.0 98.64      
21:00 14.3 13.1 92   32 4 15.0 98.66      
22:00 14.3 13.2 93     0 15.0 98.70      
23:00 14.9 13.8 93     0 15.0 98.72      

Notes on Data Quality.

Legend

  • E = Estimated
  • M = Missing
  • NA = Not Available*
  • [empty] = Indicates an unobserved value
Date modified: